Location: Clandonald
(53.5720°N, 110.7141°W)
Time: 05:17:54
(UTC+00:00)

Envisat - Visible Passes

Search period start: 23 October 2019 00:00
Search period end: 02 November 2019 00:00
Orbit: 764 x 766 km, 98.1° (Epoch: 22 October)

Date Brightness Start Highest point End Pass type
(mag) Time Alt. Az. Time Alt. Az. Time Alt. Az.
23 Oct 3.1 00:40:41 10° SE 00:45:38 54° ENE 00:50:37 10° N visible
23 Oct 5.1 02:20:39 10° SSW 02:24:57 28° W 02:29:19 10° NNW visible
23 Oct 6.4 12:45:02 10° ENE 12:46:51 12° E 12:48:40 10° ESE visible
24 Oct 3.9 01:42:58 10° S 01:47:56 52° W 01:52:55 10° NNW visible
25 Oct 3.0 01:06:00 10° SSE 01:11:04 84° ENE 01:16:12 10° NNW visible
25 Oct 5.8 02:47:22 10° SW 02:50:47 18° W 02:54:13 10° NW visible
25 Oct 6.0 13:09:11 10° NE 13:12:46 19° E 13:16:19 10° SE visible
26 Oct 4.8 02:09:02 10° SSW 02:13:36 33° W 02:18:12 10° NNW visible
27 Oct 3.5 01:31:35 10° S 01:36:37 63° WSW 01:41:41 10° NNW visible
27 Oct 6.2 03:15:19 10° W 03:16:42 11° W 03:18:05 10° WNW visible
27 Oct 5.4 13:34:07 10° NNE 13:38:34 29° E 13:42:58 10° SSE visible
28 Oct 3.0 00:54:46 10° SSE 00:59:49 70° ENE 01:04:54 10° NNW visible
28 Oct 5.5 02:35:31 10° SW 02:39:22 21° W 02:43:15 10° NW visible
28 Oct 6.1 12:58:19 10° NE 13:01:20 16° E 13:04:21 10° ESE visible
29 Oct 4.4 01:57:29 10° SSW 02:02:15 40° W 02:07:03 10° NNW visible
30 Oct 3.2 01:20:14 10° S 01:25:19 76° WSW 01:30:27 10° NNW visible
30 Oct 6.1 03:02:44 10° WSW 03:05:15 14° W 03:07:47 10° NW visible
30 Oct 5.7 13:23:02 10° NE 13:27:11 24° E 13:31:18 10° SE visible
31 Oct 3.1 00:43:36 10° SSE 00:48:35 58° ENE 00:53:35 10° N visible
31 Oct 5.2 02:23:46 10° SSW 02:27:59 26° W 02:32:13 10° NW visible
31 Oct 6.3 12:47:39 10° ENE 12:49:54 13° E 12:52:07 10° ESE visible
01 Nov 4.0 01:46:00 10° S 01:50:55 48° W 01:55:52 10° NNW visible
